Regional Weather Roundup
Issued by NWS

Home | Current Version | Previous Version | Text Only | Print | Product List | Glossary On
Versions: 1 2 3 4 5 6 7 8 9 10 11 12 13 14 15 16 17 18 19 20 21 22 23 24 25 26 27 28 29 30 31 32 33 34 35 36 37 38 39 40 41 42 43 44 45 46 47 48 49 50
315
ASUS44 KJAN 301710
RWRMS

MISSISSIPPI HOURLY WEATHER ROUNDUP
NATIONAL WEATHER SERVICE JACKSON MS
1100 AM CST FRI JAN 30 2015

NOTE: "FAIR: INDICATES FEW OR NO CLOUDS BELOW 12,000 FEET WITH NO
SIGNIFICANT WEATHER AND/OR OBSTRUCTIONS TO VISIBILITY.

MSZ001>002-007>008-010>013-018>021-025>028-034>036-301800-
NORTHWEST MISSISSIPPI

CITY           SKY/WX    TMP DP  RH WIND       PRES   REMARKS
CLARKSDALE     FAIR      45  32  61 N10       30.53S
CLEVELAND      FAIR      45  32  61 N12       30.51S
GREENWOOD      SUNNY     47  30  51 VRB7      30.49F
GREENVILLE     SUNNY     46  31  55 NE14      30.51S
GRENADA        FAIR      46  30  53 NE5       30.50S
OLIVE BRANCH   MOSUNNY   41  28  60 NE10      30.52R
OXFORD         FAIR      45  25  45 NE9       30.51S
TUNICA         SUNNY     43  30  61 NE12      30.53F
$$

MSZ003>006-009-014>017-022>024-029>033-037>039-301800-
NORTHEAST MISSISSIPPI

CITY           SKY/WX    TMP DP  RH WIND       PRES   REMARKS
COLUMBUS AFB   SUNNY     48  28  45 N10       30.47S
CORINTH        FAIR      43  27  52 VRB6G14   30.49S
GOLDN TRIANGLE SUNNY     48  30  49 N12       30.46S
STARKVILLE     FAIR      46  32  57 N7        30.47F
TUPELO         SUNNY     46  27  47 NE15      30.48S
$$

MSZ040-058-301800-
CENTRAL MISSISSIPPI

CITY           SKY/WX    TMP DP  RH WIND       PRES   REMARKS
JACKSON INTL   MOSUNNY   48  30  49 N15       30.46F
JACKSON HAWKNS SUNNY     48  29  47 VRB7      30.46F
MERIDIAN KEY   SUNNY     50  28  42 N9        30.44F
MERIDIAN NAS   MOSUNNY   50  28  42 NE9       30.45F
RAYMOND        FAIR      48  45  87 MISG      30.46F
VICKSBURG      SUNNY     50  32  50 N9        30.49F
$$

MSZ059>079-301800-
SOUTH MISSISSIPPI

CITY           SKY/WX    TMP DP  RH WIND       PRES   REMARKS
BROOKHAVEN     FAIR      48  32  53 N10       30.45F
HATTIESBURG    SUNNY     51  32  48 N10       30.43F
MCCOMB         SUNNY     49  30  48 NE9       30.43F
NATCHEZ        SUNNY     48  30  49 N9        30.46F
PINE BELT      SUNNY     52  28  40 NE9       30.44F
$$

MSZ080>082-301800-
COASTAL MISSISSIPPI

CITY           SKY/WX    TMP DP  RH WIND       PRES   REMARKS
BAY ST LOUIS   SUNNY     52  28  40 N14G21    30.40S
BILOXI         MOSUNNY   52  34  49 NE14G20   30.38F
PASCAGOULA     MOSUNNY   53  33  46 N16       30.38S
GULFPORT       MOSUNNY   53  33  46 N13       30.38F
$$



USA.gov is the U.S. government's official web portal to all federal, state and local government web resources and services.